OAL638 FIMP-FMMI

Flight info

Callsign OAL638
Flight time 1h 42m
Altitude 34000
Route RASMA UA400 TE
Aircraft B737/M-VGDW/C

Departure

Time 2026-04-28 18:18
Airport Sir Seewoosagur Ramgoolam International Airport (FIMP)

Arrival

Time 2026-04-28 20:00
Airport Ivato International Airport (FMMI)
Time Latitude Longitude Altitude Speed Heading
2026-04-28 17:58 -20.43516 57.67972 171 ft 0 kts 285°
2026-04-28 18:08 -20.43517 57.67977 171 ft 2 kts 279°
2026-04-28 18:08 -20.43517 57.67980 171 ft 0 kts 277°
2026-04-28 18:09 -20.43518 57.67986 172 ft 3 kts 277°
2026-04-28 18:09 -20.43521 57.68007 174 ft 1 kts 289°
2026-04-28 18:09 -20.43522 57.68006 172 ft 0 kts 279°
2026-04-28 18:12 -20.43509 57.67993 172 ft 7 kts 334°
2026-04-28 18:12 -20.43474 57.68031 174 ft 8 kts 75°
2026-04-28 18:12 -20.43453 57.68084 176 ft 8 kts 49°
2026-04-28 18:13 -20.43406 57.68106 178 ft 8 kts
2026-04-28 18:13 -20.43343 57.68101 178 ft 11 kts 349°
2026-04-28 18:13 -20.43255 57.68076 177 ft 15 kts 348°
2026-04-28 18:13 -20.43175 57.68085 178 ft 13 kts 19°
2026-04-28 18:14 -20.43122 57.68153 178 ft 13 kts 93°
2026-04-28 18:14 -20.43165 57.68253 179 ft 17 kts 118°
2026-04-28 18:14 -20.43222 57.68370 181 ft 18 kts 116°
2026-04-28 18:14 -20.43291 57.68514 177 ft 22 kts 118°
2026-04-28 18:15 -20.43359 57.68653 177 ft 22 kts 117°
2026-04-28 18:15 -20.43439 57.68821 173 ft 29 kts 117°
2026-04-28 18:15 -20.43504 57.68955 173 ft 21 kts 117°
2026-04-28 18:15 -20.43578 57.69110 173 ft 26 kts 117°
2026-04-28 18:16 -20.43644 57.69245 174 ft 17 kts 119°
2026-04-28 18:16 -20.43623 57.69326 174 ft 3 kts 36°
2026-04-28 18:16 -20.43580 57.69355 174 ft 11 kts 30°
2026-04-28 18:16 -20.43502 57.69355 173 ft 14 kts 315°
2026-04-28 18:17 -20.43487 57.69325 173 ft 0 kts 293°
2026-04-28 18:17 -20.43486 57.69322 173 ft 3 kts 293°
2026-04-28 18:17 -20.43481 57.69310 173 ft 5 kts 293°
2026-04-28 18:17 -20.43369 57.69079 173 ft 84 kts 297°
2026-04-28 18:18 -20.42962 57.68215 214 ft 171 kts 296°
2026-04-28 18:18 -20.42397 57.66960 1095 ft 196 kts 296°
2026-04-28 18:18 -20.41875 57.65682 2611 ft 188 kts 298°
2026-04-28 18:18 -20.41467 57.64827 3131 ft 205 kts 301°
2026-04-28 18:19 -20.40459 57.62859 3664 ft 245 kts 301°
2026-04-28 18:19 -20.39633 57.61220 4274 ft 257 kts 300°
2026-04-28 18:19 -20.38792 57.59519 5072 ft 259 kts 300°
2026-04-28 18:19 -20.37952 57.57802 5819 ft 269 kts 300°
2026-04-28 18:20 -20.37061 57.55964 6433 ft 285 kts 300°
2026-04-28 18:20 -20.36155 57.54082 7486 ft 286 kts 299°
2026-04-28 18:20 -20.35238 57.52175 8435 ft 292 kts 299°
2026-04-28 18:20 -20.34310 57.50242 9446 ft 294 kts 299°
2026-04-28 18:21 -20.33368 57.48280 10319 ft 302 kts 298°
2026-04-28 18:21 -20.32294 57.46269 10696 ft 326 kts 305°
2026-04-28 18:21 -20.30950 57.44253 10963 ft 349 kts 307°
2026-04-28 18:21 -20.29492 57.42135 11592 ft 355 kts 306°
2026-04-28 18:22 -20.28400 57.39783 11894 ft 358 kts 283°
2026-04-28 18:22 -20.28215 57.37119 11992 ft 366 kts 269°
2026-04-28 18:22 -20.28273 57.34425 11995 ft 362 kts 269°
2026-04-28 18:22 -20.28312 57.31754 11983 ft 359 kts 270°
2026-04-28 18:23 -20.28340 57.29089 11995 ft 360 kts 270°
2026-04-28 18:23 -20.28363 57.26423 12000 ft 361 kts 270°
2026-04-28 18:23 -20.28382 57.23748 12014 ft 363 kts 270°
2026-04-28 18:23 -20.28399 57.21032 12051 ft 369 kts 270°
2026-04-28 18:24 -20.28411 57.18276 12638 ft 371 kts 270°
2026-04-28 18:24 -20.28418 57.16474 13503 ft 363 kts 270°
2026-04-28 18:24 -20.28429 57.12882 14669 ft 365 kts 270°
2026-04-28 18:24 -20.28437 57.10162 15362 ft 370 kts 270°
2026-04-28 18:25 -20.28445 57.07410 16100 ft 373 kts 270°
2026-04-28 18:25 -20.28453 57.04641 16844 ft 376 kts 270°
2026-04-28 18:25 -20.28461 57.01882 17571 ft 379 kts 270°
2026-04-28 18:26 -20.28475 56.96229 18935 ft 384 kts 270°
2026-04-28 18:26 -20.28482 56.93378 19589 ft 386 kts 270°
2026-04-28 18:26 -20.28488 56.90516 20234 ft 388 kts 270°
2026-04-28 18:26 -20.28494 56.87627 20795 ft 392 kts 270°
2026-04-28 18:27 -20.28499 56.84708 21378 ft 395 kts 270°
2026-04-28 18:27 -20.28505 56.81773 22014 ft 397 kts 270°
2026-04-28 18:27 -20.28509 56.78810 22564 ft 402 kts 270°
2026-04-28 18:27 -20.28513 56.75819 23089 ft 406 kts 270°
2026-04-28 18:28 -20.28517 56.72802 23617 ft 409 kts 271°
2026-04-28 18:28 -20.28520 56.69756 24101 ft 411 kts 271°
2026-04-28 18:28 -20.28523 56.66709 24635 ft 412 kts 271°
2026-04-28 18:28 -20.28525 56.63653 25148 ft 413 kts 271°
2026-04-28 18:29 -20.28527 56.60591 25655 ft 414 kts 271°
2026-04-28 18:29 -20.28528 56.57518 26157 ft 416 kts 271°
2026-04-28 18:29 -20.28529 56.54433 26647 ft 417 kts 271°
2026-04-28 18:29 -20.28529 56.51334 27143 ft 419 kts 271°
2026-04-28 18:30 -20.28528 56.48230 27606 ft 421 kts 271°
2026-04-28 18:30 -20.28528 56.47218 27758 ft 421 kts 271°
2026-04-28 18:30 -20.28525 56.42010 28501 ft 424 kts 272°
2026-04-28 18:30 -20.28523 56.38858 28958 ft 426 kts 272°
2026-04-28 18:31 -20.28520 56.35696 29400 ft 428 kts 272°
2026-04-28 18:31 -20.28517 56.32521 29826 ft 429 kts 272°
2026-04-28 18:31 -20.28513 56.29334 30229 ft 431 kts 272°
2026-04-28 18:31 -20.28510 56.26146 30657 ft 430 kts 272°
2026-04-28 18:32 -20.28505 56.22970 31153 ft 428 kts 272°
2026-04-28 18:32 -20.28361 56.19819 31604 ft 425 kts 281°
2026-04-28 18:32 -20.27479 56.16828 32017 ft 423 kts 296°
2026-04-28 18:32 -20.26021 56.14117 32493 ft 421 kts 301°
2026-04-28 18:33 -20.24497 56.11459 32910 ft 420 kts 300°
2026-04-28 18:33 -20.22998 56.08784 33234 ft 421 kts 300°
2026-04-28 18:33 -20.21517 56.06091 33579 ft 422 kts 300°
2026-04-28 18:33 -20.20048 56.03383 33868 ft 423 kts 297°
2026-04-28 18:34 -20.19094 56.00443 33971 ft 421 kts 279°
2026-04-28 18:34 -20.18562 55.94231 33990 ft 422 kts 276°
2026-04-28 18:35 -20.17977 55.88014 33988 ft 422 kts 278°
2026-04-28 18:35 -20.17226 55.81808 33983 ft 423 kts 278°
2026-04-28 18:36 -20.16421 55.75648 33978 ft 423 kts 279°
2026-04-28 18:36 -20.15605 55.69451 33979 ft 423 kts 279°
2026-04-28 18:37 -20.14791 55.63245 33981 ft 423 kts 278°
2026-04-28 18:37 -20.13976 55.57036 33980 ft 423 kts 278°
2026-04-28 18:38 -20.13156 55.50824 33980 ft 423 kts 279°
2026-04-28 18:38 -20.12286 55.44628 33977 ft 423 kts 279°
2026-04-28 18:39 -20.11399 55.38435 33974 ft 423 kts 279°
2026-04-28 18:39 -20.10525 55.32301 33980 ft 423 kts 279°
2026-04-28 18:40 -20.09644 55.26114 33976 ft 423 kts 279°
2026-04-28 18:40 -20.08762 55.19929 33975 ft 423 kts 279°
2026-04-28 18:41 -20.07880 55.13751 33987 ft 423 kts 279°
2026-04-28 18:41 -20.06993 55.07567 33974 ft 423 kts 279°
2026-04-28 18:42 -20.06107 55.01383 33979 ft 423 kts 279°
2026-04-28 18:42 -20.05217 54.95188 33977 ft 423 kts 279°
2026-04-28 18:43 -20.04326 54.88998 33981 ft 424 kts 279°
2026-04-28 18:43 -20.03431 54.82804 33982 ft 424 kts 279°
2026-04-28 18:44 -20.02534 54.76602 33977 ft 424 kts 279°
2026-04-28 18:44 -20.01182 54.67286 33976 ft 425 kts 279°
2026-04-28 18:45 -20.00284 54.61118 33970 ft 425 kts 279°
2026-04-28 18:45 -19.99377 54.54901 33970 ft 426 kts 279°
2026-04-28 18:46 -19.98469 54.48678 33974 ft 426 kts 279°
2026-04-28 18:46 -19.97557 54.42451 33977 ft 426 kts 279°
2026-04-28 18:47 -19.96644 54.36223 33977 ft 427 kts 279°
2026-04-28 18:47 -19.95727 54.29988 33984 ft 427 kts 278°
2026-04-28 18:48 -19.94808 54.23756 33969 ft 427 kts 278°
2026-04-28 18:48 -19.93882 54.17514 33980 ft 427 kts 278°
2026-04-28 18:49 -19.93266 54.13380 33976 ft 428 kts 278°
2026-04-28 18:49 -19.92026 54.05076 33976 ft 428 kts 278°
2026-04-28 18:50 -19.91093 53.98836 33969 ft 428 kts 278°
2026-04-28 18:50 -19.90156 53.92586 33976 ft 428 kts 278°
2026-04-28 18:51 -19.89375 53.87393 33976 ft 428 kts 278°
2026-04-28 18:51 -19.88434 53.81142 33973 ft 429 kts 278°
2026-04-28 18:52 -19.87489 53.74885 33974 ft 429 kts 278°
2026-04-28 18:52 -19.87008 53.71743 33790 ft 434 kts 274°
2026-04-28 18:52 -19.86527 53.68557 33895 ft 440 kts 274°
2026-04-28 18:53 -19.85545 53.62032 33967 ft 454 kts 275°
2026-04-28 18:53 -19.84528 53.55329 33970 ft 461 kts 275°
2026-04-28 18:54 -19.83499 53.48604 33970 ft 462 kts 275°
2026-04-28 18:54 -19.82473 53.41911 33969 ft 462 kts 275°
2026-04-28 18:55 -19.81441 53.35183 33971 ft 461 kts 275°
2026-04-28 18:55 -19.80410 53.28470 33975 ft 460 kts 275°
2026-04-28 18:56 -19.79380 53.21788 33967 ft 458 kts 275°
2026-04-28 18:56 -19.78352 53.15122 33968 ft 456 kts 275°
2026-04-28 18:57 -19.77322 53.08473 33971 ft 455 kts 275°
2026-04-28 18:57 -19.76297 53.01857 33971 ft 454 kts 275°
2026-04-28 18:58 -19.75272 52.95258 33971 ft 453 kts 275°
2026-04-28 18:58 -19.74247 52.88672 33970 ft 452 kts 275°
2026-04-28 18:59 -19.73221 52.82090 33974 ft 452 kts 275°
2026-04-28 18:59 -19.72191 52.75506 33970 ft 452 kts 275°
2026-04-28 19:00 -19.71160 52.68931 33972 ft 452 kts 275°
2026-04-28 19:00 -19.70127 52.62358 33973 ft 452 kts 275°
2026-04-28 19:01 -19.69096 52.55813 33975 ft 452 kts 275°
2026-04-28 19:01 -19.68057 52.49230 33972 ft 452 kts 275°
2026-04-28 19:02 -19.67014 52.42647 33972 ft 452 kts 275°
2026-04-28 19:02 -19.65969 52.36061 33975 ft 453 kts 275°
2026-04-28 19:03 -19.64922 52.29475 33968 ft 453 kts 276°
2026-04-28 19:03 -19.63871 52.22890 33968 ft 453 kts 276°
2026-04-28 19:04 -19.62817 52.16298 33973 ft 453 kts 276°
2026-04-28 19:04 -19.61762 52.09713 33968 ft 453 kts 276°
2026-04-28 19:05 -19.60710 52.03162 33967 ft 453 kts 276°
2026-04-28 19:05 -19.59652 51.96591 33963 ft 453 kts 276°
2026-04-28 19:06 -19.58769 51.91116 33969 ft 453 kts 276°
2026-04-28 19:06 -19.57527 51.83438 33965 ft 452 kts 276°
2026-04-28 19:07 -19.56460 51.76859 33968 ft 452 kts 276°
2026-04-28 19:07 -19.55392 51.70291 33965 ft 452 kts 276°
2026-04-28 19:08 -19.54322 51.63721 33964 ft 452 kts 276°
2026-04-28 19:08 -19.53256 51.57192 33964 ft 452 kts 276°
2026-04-28 19:09 -19.52183 51.50638 33965 ft 451 kts 276°
2026-04-28 19:09 -19.51109 51.44090 33968 ft 451 kts 276°
2026-04-28 19:10 -19.50028 51.37521 33978 ft 451 kts 276°
2026-04-28 19:10 -19.48951 51.30982 33979 ft 451 kts 276°
2026-04-28 19:11 -19.47868 51.24432 33968 ft 451 kts 276°
2026-04-28 19:11 -19.46785 51.17891 33965 ft 451 kts 276°
2026-04-28 19:12 -19.45700 51.11350 33977 ft 450 kts 276°
2026-04-28 19:12 -19.44620 51.04860 33969 ft 450 kts 276°
2026-04-28 19:13 -19.43531 50.98327 33972 ft 450 kts 276°
2026-04-28 19:13 -19.42438 50.91789 33964 ft 450 kts 276°
2026-04-28 19:14 -19.41344 50.85257 33972 ft 450 kts 277°
2026-04-28 19:14 -19.40248 50.78728 33970 ft 450 kts 277°
2026-04-28 19:15 -19.39150 50.72200 33980 ft 450 kts 277°
2026-04-28 19:15 -19.38236 50.66782 33983 ft 449 kts 277°
2026-04-28 19:16 -19.36949 50.59163 33974 ft 449 kts 277°
2026-04-28 19:16 -19.35846 50.52654 33978 ft 449 kts 277°
2026-04-28 19:17 -19.34742 50.46146 33974 ft 449 kts 277°
2026-04-28 19:17 -19.33642 50.39684 33977 ft 448 kts 277°
2026-04-28 19:18 -19.32535 50.33188 33977 ft 448 kts 277°
2026-04-28 19:18 -19.31424 50.26687 33975 ft 448 kts 277°
2026-04-28 19:19 -19.30312 50.20192 33974 ft 448 kts 277°
2026-04-28 19:19 -19.29198 50.13701 33979 ft 448 kts 277°
2026-04-28 19:20 -19.28081 50.07212 33977 ft 448 kts 277°
2026-04-28 19:20 -19.26958 50.00728 33969 ft 448 kts 277°
2026-04-28 19:21 -19.25833 49.94246 33968 ft 448 kts 277°
2026-04-28 19:21 -19.24707 49.87761 33973 ft 448 kts 277°
2026-04-28 19:22 -19.23769 49.82372 33978 ft 448 kts 277°
2026-04-28 19:22 -19.22454 49.74834 33977 ft 448 kts 277°
2026-04-28 19:23 -19.21321 49.68356 33978 ft 448 kts 277°
2026-04-28 19:23 -19.20186 49.61875 33977 ft 448 kts 277°
2026-04-28 19:24 -19.19049 49.55400 33974 ft 448 kts 277°
2026-04-28 19:24 -19.17910 49.48924 33979 ft 448 kts 277°
2026-04-28 19:25 -19.16768 49.42448 33976 ft 448 kts 277°
2026-04-28 19:25 -19.15623 49.35967 33979 ft 448 kts 277°
2026-04-28 19:26 -19.14476 49.29495 33979 ft 448 kts 277°
2026-04-28 19:26 -19.13333 49.23053 33981 ft 448 kts 278°
2026-04-28 19:27 -19.12182 49.16577 33985 ft 448 kts 278°
2026-04-28 19:27 -19.11026 49.10091 33995 ft 448 kts 278°
2026-04-28 19:28 -19.09870 49.03617 33995 ft 448 kts 278°
2026-04-28 19:28 -19.08709 48.97131 34007 ft 448 kts 278°
2026-04-28 19:29 -19.07744 48.91747 34012 ft 449 kts 278°
2026-04-28 19:29 -19.06389 48.84207 34024 ft 449 kts 278°
2026-04-28 19:30 -19.05222 48.77723 34037 ft 449 kts 278°
2026-04-28 19:30 -19.04053 48.71246 34042 ft 449 kts 278°
2026-04-28 19:31 -19.02880 48.64758 34051 ft 448 kts 278°
2026-04-28 19:31 -19.01707 48.58287 34072 ft 448 kts 278°
2026-04-28 19:32 -19.00534 48.51823 34078 ft 448 kts 278°
2026-04-28 19:32 -18.99357 48.45351 34086 ft 448 kts 278°
2026-04-28 19:33 -18.98178 48.38884 34092 ft 448 kts 278°
2026-04-28 19:33 -18.96997 48.32417 34104 ft 448 kts 278°
2026-04-28 19:34 -18.96406 48.29186 33932 ft 449 kts 278°
2026-04-28 19:34 -18.95818 48.25967 33240 ft 452 kts 278°
2026-04-28 19:34 -18.95220 48.22712 32502 ft 452 kts 278°
2026-04-28 19:34 -18.94589 48.19466 31977 ft 448 kts 279°
2026-04-28 19:35 -18.93925 48.16269 31411 ft 445 kts 279°
2026-04-28 19:35 -18.93250 48.13099 30874 ft 441 kts 279°
2026-04-28 19:35 -18.92576 48.09938 30311 ft 440 kts 279°
2026-04-28 19:35 -18.91910 48.06803 29695 ft 437 kts 278°
2026-04-28 19:36 -18.91250 48.03680 29094 ft 433 kts 279°
2026-04-28 19:36 -18.90600 48.00591 28521 ft 429 kts 279°
2026-04-28 19:36 -18.89958 47.97530 27955 ft 425 kts 279°
2026-04-28 19:36 -18.89324 47.94505 27414 ft 421 kts 279°
2026-04-28 19:37 -18.88693 47.91495 26867 ft 418 kts 279°
2026-04-28 19:37 -18.88480 47.90482 26686 ft 417 kts 279°
2026-04-28 19:37 -18.87441 47.85531 25793 ft 413 kts 279°
2026-04-28 19:37 -18.86829 47.82620 25242 ft 411 kts 279°
2026-04-28 19:38 -18.86203 47.79644 24693 ft 410 kts 279°
2026-04-28 19:38 -18.85594 47.76749 24145 ft 409 kts 279°
2026-04-28 19:38 -18.84978 47.73825 23562 ft 408 kts 279°
2026-04-28 19:38 -18.84362 47.70906 22952 ft 406 kts 280°
2026-04-28 19:39 -18.83751 47.68014 22389 ft 402 kts 280°
2026-04-28 19:39 -18.83143 47.65142 21833 ft 399 kts 280°
2026-04-28 19:39 -18.82469 47.62317 21280 ft 398 kts 288°
2026-04-28 19:39 -18.81116 47.59771 20732 ft 399 kts 308°
2026-04-28 19:40 -18.79055 47.57844 20258 ft 397 kts 328°
2026-04-28 19:40 -18.77413 47.57024 20036 ft 392 kts 342°
2026-04-28 19:40 -18.74758 47.56581 19809 ft 384 kts
2026-04-28 19:40 -18.72169 47.57095 19586 ft 378 kts 23°
2026-04-28 19:41 -18.69923 47.58497 19363 ft 377 kts 43°
2026-04-28 19:41 -18.68271 47.60627 19146 ft 376 kts 64°
2026-04-28 19:41 -18.67421 47.63207 18926 ft 372 kts 84°
2026-04-28 19:41 -18.67429 47.65904 18721 ft 366 kts 99°
2026-04-28 19:42 -18.67831 47.68543 18502 ft 364 kts 102°
2026-04-28 19:42 -18.68301 47.71163 18248 ft 362 kts 103°
2026-04-28 19:42 -18.68786 47.73765 17989 ft 361 kts 103°
2026-04-28 19:42 -18.69298 47.76355 17729 ft 360 kts 107°
2026-04-28 19:43 -18.70346 47.78722 17452 ft 356 kts 127°
2026-04-28 19:43 -18.72125 47.80506 17212 ft 353 kts 148°
2026-04-28 19:43 -18.74384 47.81474 16962 ft 352 kts 169°
2026-04-28 19:43 -18.76788 47.81508 16727 ft 352 kts 189°
2026-04-28 19:44 -18.79076 47.80604 16485 ft 354 kts 211°
2026-04-28 19:44 -18.80981 47.78960 16282 ft 355 kts 223°
2026-04-28 19:44 -18.82661 47.77056 16023 ft 356 kts 233°
2026-04-28 19:44 -18.83735 47.74701 15772 ft 359 kts 254°
2026-04-28 19:45 -18.84065 47.72089 15559 ft 360 kts 268°
2026-04-28 19:45 -18.83919 47.69460 15332 ft 360 kts 276°
2026-04-28 19:45 -18.83515 47.66850 15104 ft 360 kts 281°
2026-04-28 19:45 -18.82997 47.64267 14869 ft 360 kts 282°
2026-04-28 19:46 -18.82440 47.61694 14639 ft 359 kts 283°
2026-04-28 19:46 -18.81881 47.59131 14414 ft 358 kts 283°
2026-04-28 19:46 -18.81331 47.56570 14189 ft 357 kts 283°
2026-04-28 19:46 -18.80787 47.54014 13961 ft 356 kts 283°
2026-04-28 19:47 -18.80314 47.51457 13696 ft 355 kts 275°
2026-04-28 19:47 -18.80320 47.48868 13450 ft 351 kts 267°
2026-04-28 19:47 -18.80444 47.46307 13191 ft 347 kts 267°
2026-04-28 19:47 -18.80556 47.43810 12940 ft 343 kts 267°
2026-04-28 19:48 -18.80660 47.41314 12694 ft 339 kts 267°
2026-04-28 19:48 -18.80754 47.38838 12439 ft 335 kts 268°
2026-04-28 19:48 -18.80840 47.36408 12180 ft 326 kts 268°
2026-04-28 19:48 -18.80918 47.34052 11934 ft 317 kts 268°
2026-04-28 19:49 -18.80993 47.31760 11675 ft 307 kts 268°
2026-04-28 19:49 -18.81064 47.29559 11413 ft 293 kts 268°
2026-04-28 19:49 -18.81131 47.27453 11161 ft 283 kts 268°
2026-04-28 19:49 -18.81196 47.25396 10932 ft 278 kts 268°
2026-04-28 19:50 -18.81324 47.21378 10465 ft 270 kts 268°
2026-04-28 19:50 -18.81386 47.19404 10240 ft 268 kts 268°
2026-04-28 19:50 -18.81447 47.17453 10000 ft 265 kts 268°
2026-04-28 19:51 -18.81507 47.15512 9742 ft 263 kts 268°
2026-04-28 19:51 -18.81567 47.13589 9489 ft 261 kts 268°
2026-04-28 19:51 -18.81627 47.11676 9243 ft 262 kts 268°
2026-04-28 19:51 -18.81384 47.09774 8956 ft 266 kts 293°
2026-04-28 19:52 -18.80253 47.08244 8729 ft 268 kts 323°
2026-04-28 19:52 -18.78548 47.07488 8487 ft 269 kts 353°
2026-04-28 19:52 -18.76730 47.07792 8232 ft 269 kts 28°
2026-04-28 19:52 -18.75411 47.09111 8012 ft 268 kts 62°
2026-04-28 19:53 -18.74965 47.10987 7807 ft 265 kts 88°
2026-04-28 19:53 -18.74923 47.12933 7573 ft 266 kts 90°
2026-04-28 19:53 -18.74937 47.14882 7337 ft 266 kts 93°
2026-04-28 19:53 -18.75093 47.16824 7118 ft 264 kts 97°
2026-04-28 19:54 -18.75345 47.18707 7027 ft 254 kts 99°
2026-04-28 19:54 -18.75627 47.20502 7008 ft 242 kts 100°
2026-04-28 19:54 -18.75896 47.22189 6998 ft 223 kts 100°
2026-04-28 19:54 -18.76134 47.23767 7028 ft 216 kts 99°
2026-04-28 19:55 -18.76358 47.25290 7001 ft 202 kts 99°
2026-04-28 19:55 -18.76561 47.26672 6988 ft 180 kts 99°
2026-04-28 19:55 -18.76746 47.27925 7058 ft 167 kts 99°
2026-04-28 19:55 -18.76917 47.29095 7027 ft 156 kts 99°
2026-04-28 19:56 -18.77079 47.30192 7022 ft 149 kts 99°
2026-04-28 19:56 -18.77241 47.31293 6959 ft 154 kts 99°
2026-04-28 19:56 -18.77406 47.32416 6783 ft 154 kts 99°
2026-04-28 19:56 -18.77569 47.33522 6595 ft 151 kts 99°
2026-04-28 19:57 -18.77728 47.34599 6412 ft 150 kts 99°
2026-04-28 19:57 -18.77889 47.35688 6219 ft 149 kts 99°
2026-04-28 19:57 -18.78048 47.36756 6031 ft 146 kts 99°
2026-04-28 19:57 -18.78204 47.37813 5848 ft 146 kts 99°
2026-04-28 19:58 -18.78357 47.38866 5651 ft 144 kts 99°
2026-04-28 19:58 -18.78510 47.39905 5472 ft 143 kts 99°
2026-04-28 19:58 -18.78664 47.40938 5283 ft 142 kts 99°
2026-04-28 19:58 -18.78816 47.41964 5104 ft 142 kts 99°
2026-04-28 19:59 -18.78970 47.43001 4906 ft 144 kts 99°
2026-04-28 19:59 -18.79125 47.44052 4704 ft 146 kts 99°
2026-04-28 19:59 -18.79281 47.45103 4505 ft 144 kts 99°
2026-04-28 19:59 -18.79434 47.46140 4308 ft 142 kts 100°
2026-04-28 20:00 -18.79588 47.47137 4185 ft 128 kts 97°
2026-04-28 20:00 -18.79699 47.47908 4166 ft 83 kts 99°
2026-04-28 20:00 -18.79792 47.48110 4159 ft 13 kts 175°
2026-04-28 20:00 -18.79844 47.48106 4159 ft 3 kts 187°
2026-04-28 20:01 -18.79866 47.48098 4159 ft 5 kts 204°
2026-04-28 20:01 -18.79889 47.48049 4160 ft 10 kts 268°
2026-04-28 20:01 -18.79883 47.47993 4161 ft 11 kts 278°
2026-04-28 20:01 -18.79872 47.47915 4164 ft 9 kts 280°
2026-04-28 20:02 -18.79860 47.47846 4165 ft 10 kts 280°
2026-04-28 20:02 -18.79848 47.47777 4167 ft 9 kts 280°
2026-04-28 20:02 -18.79834 47.47711 4169 ft 9 kts 278°
2026-04-28 20:02 -18.79868 47.47674 4170 ft 6 kts 190°
2026-04-28 20:03 -18.79885 47.47671 4170 ft 0 kts 189°